TimeMST,TemperatureF,Dew PointF,Humidity,Sea Level PressureIn,VisibilityMPH,Wind Direction,Wind SpeedMPH,Gust SpeedMPH,PrecipitationIn,Events,Conditions,WindDirDegrees,DateUTC
12:14 AM,18.3,11.3,74,30.28,10.0,West,5.8,-,N/A,,Clear,260,2013-01-06 07:14:00
12:34 AM,19.4,11.5,71,30.27,10.0,West,4.6,-,N/A,,Clear,260,2013-01-06 07:34:00
12:54 AM,18.3,11.1,73,30.26,10.0,West,3.5,-,N/A,,Clear,280,2013-01-06 07:54:00
1:14 AM,15.4,8.4,74,30.26,10.0,WNW,4.6,-,N/A,,Clear,290,2013-01-06 08:14:00
1:34 AM,11.7,6.8,81,30.26,10.0,West,4.6,-,N/A,,Clear,280,2013-01-06 08:34:00
1:54 AM,10.9,6.3,81,30.26,10.0,WNW,3.5,-,N/A,,Clear,300,2013-01-06 08:54:00
2:14 AM,10.0,5.2,81,30.25,10.0,WNW,3.5,-,N/A,,Clear,300,2013-01-06 09:14:00
2:34 AM,9.3,4.1,79,30.25,10.0,WNW,4.6,-,N/A,,Clear,290,2013-01-06 09:34:00
2:54 AM,9.5,5.0,82,30.25,10.0,WNW,4.6,-,N/A,,Clear,290,2013-01-06 09:54:00
3:14 AM,10.0,6.1,84,30.24,10.0,WNW,8.1,-,N/A,,Clear,290,2013-01-06 10:14:00
3:34 AM,12.6,4.8,71,30.23,10.0,WNW,6.9,-,N/A,,Clear,300,2013-01-06 10:34:00
3:54 AM,11.3,2.1,67,30.22,10.0,WNW,5.8,-,N/A,,Clear,290,2013-01-06 10:54:00
4:14 AM,12.9,0.5,58,30.22,10.0,West,6.9,-,N/A,,Clear,280,2013-01-06 11:14:00
4:34 AM,14.0,-0.2,53,30.21,10.0,WNW,6.9,-,N/A,,Clear,290,2013-01-06 11:34:00
4:54 AM,14.5,0.5,54,30.20,10.0,WNW,5.8,-,N/A,,Clear,300,2013-01-06 11:54:00
5:14 AM,12.7,-0.0,57,30.20,10.0,West,3.5,-,N/A,,Clear,270,2013-01-06 12:14:00
5:34 AM,10.8,-0.6,60,30.20,10.0,West,3.5,-,N/A,,Clear,270,2013-01-06 12:34:00
5:54 AM,14.4,-0.4,52,30.20,10.0,South,3.5,-,N/A,,Clear,190,2013-01-06 12:54:00
6:14 AM,19.2,5.4,55,30.19,10.0,Calm,Calm,-,N/A,,Clear,0,2013-01-06 13:14:00
6:34 AM,12.7,-1.3,54,30.19,10.0,NNW,3.5,-,N/A,,Clear,330,2013-01-06 13:34:00
6:54 AM,16.2,-1.8,45,30.19,10.0,Calm,Calm,-,N/A,,Clear,0,2013-01-06 13:54:00
7:14 AM,11.5,-1.5,56,30.19,10.0,Calm,Calm,-,N/A,,Clear,0,2013-01-06 14:14:00
7:34 AM,14.7,-2.2,47,30.19,10.0,SSW,5.8,-,N/A,,Clear,210,2013-01-06 14:34:00
7:54 AM,13.3,0.3,56,30.18,10.0,Calm,Calm,-,N/A,,Clear,0,2013-01-06 14:54:00
8:14 AM,19.4,6.3,57,30.19,10.0,Calm,Calm,-,N/A,,Clear,0,2013-01-06 15:14:00
8:34 AM,26.2,10.2,51,30.19,10.0,Calm,Calm,-,N/A,,Clear,0,2013-01-06 15:34:00
8:54 AM,30.4,10.2,43,30.19,10.0,Calm,Calm,-,N/A,,Clear,0,2013-01-06 15:54:00
9:14 AM,32.0,7.9,36,30.20,10.0,SSW,4.6,-,N/A,,Clear,210,2013-01-06 16:14:00
9:34 AM,33.8,7.2,33,30.20,10.0,SSW,4.6,-,N/A,,Clear,210,2013-01-06 16:34:00
9:54 AM,36.0,3.7,26,30.20,10.0,South,8.1,-,N/A,,Clear,190,2013-01-06 16:54:00
10:14 AM,36.7,5.2,27,30.20,10.0,Calm,Calm,-,N/A,,Clear,0,2013-01-06 17:14:00
10:34 AM,38.3,5.9,26,30.19,10.0,South,8.1,-,N/A,,Clear,180,2013-01-06 17:34:00
10:54 AM,39.7,5.0,24,30.18,10.0,South,9.2,16.1,N/A,,Clear,180,2013-01-06 17:54:00
11:14 AM,41.4,5.4,23,30.16,10.0,South,9.2,19.6,N/A,,Clear,170,2013-01-06 18:14:00
11:34 AM,42.8,0.3,17,30.15,10.0,South,15.0,21.9,N/A,,Clear,190,2013-01-06 18:34:00
11:54 AM,43.2,-0.6,16,30.13,10.0,South,11.5,20.7,N/A,,Clear,180,2013-01-06 18:54:00
12:14 PM,44.4,-0.2,16,30.12,10.0,South,13.8,18.4,N/A,,Clear,180,2013-01-06 19:14:00
12:34 PM,45.1,-0.6,15,30.10,10.0,SSW,11.5,19.6,N/A,,Clear,200,2013-01-06 19:34:00
12:54 PM,44.8,0.1,16,30.09,10.0,SSE,8.1,18.4,N/A,,Clear,160,2013-01-06 19:54:00
1:14 PM,44.6,0.1,16,30.08,10.0,South,8.1,18.4,N/A,,Clear,170,2013-01-06 20:14:00
1:34 PM,44.1,0.1,16,30.07,10.0,SSE,6.9,18.4,N/A,,Clear,160,2013-01-06 20:34:00
2:14 PM,44.1,0.5,16,30.05,10.0,South,11.5,17.3,N/A,,Clear,180,2013-01-06 21:14:00
2:34 PM,43.9,0.9,17,30.04,10.0,SSE,4.6,-,N/A,,Clear,160,2013-01-06 21:34:00
2:54 PM,43.7,1.8,18,30.04,10.0,SSE,9.2,16.1,N/A,,Clear,160,2013-01-06 21:54:00
3:34 PM,43.0,3.0,19,30.04,10.0,SSE,5.8,-,N/A,,Clear,160,2013-01-06 22:34:00
3:54 PM,39.6,4.8,24,30.04,10.0,SSW,9.2,-,N/A,,Clear,200,2013-01-06 22:54:00
4:14 PM,35.4,5.0,28,30.03,10.0,SW,5.8,-,N/A,,Clear,230,2013-01-06 23:14:00
4:34 PM,32.2,5.0,32,30.04,10.0,SW,6.9,-,N/A,,Clear,220,2013-01-06 23:34:00
4:54 PM,32.2,5.2,32,30.03,10.0,WSW,5.8,-,N/A,,Clear,240,2013-01-06 23:54:00
5:14 PM,30.9,5.5,34,30.02,10.0,WSW,5.8,-,N/A,,Clear,240,2013-01-07 00:14:00
5:34 PM,28.0,6.3,40,30.02,10.0,West,3.5,-,N/A,,Clear,260,2013-01-07 00:34:00
5:54 PM,26.4,7.0,44,30.02,10.0,West,3.5,-,N/A,,Clear,260,2013-01-07 00:54:00
6:14 PM,26.2,6.8,44,30.02,10.0,West,3.5,-,N/A,,Clear,270,2013-01-07 01:14:00
6:34 PM,25.5,7.2,46,30.02,10.0,WNW,4.6,-,N/A,,Clear,300,2013-01-07 01:34:00
6:54 PM,26.1,6.8,44,30.01,10.0,West,3.5,-,N/A,,Clear,270,2013-01-07 01:54:00
7:14 PM,25.7,7.3,46,30.01,10.0,NW,4.6,-,N/A,,Clear,320,2013-01-07 02:14:00
7:34 PM,22.6,8.1,54,30.00,10.0,NW,6.9,-,N/A,,Clear,320,2013-01-07 02:34:00
7:54 PM,26.8,7.5,44,30.00,10.0,NW,6.9,-,N/A,,Clear,310,2013-01-07 02:54:00
8:14 PM,27.5,7.9,44,30.00,10.0,WNW,8.1,-,N/A,,Clear,290,2013-01-07 03:14:00
8:54 PM,32.0,4.1,31,29.99,10.0,West,9.2,-,N/A,,Clear,280,2013-01-07 03:54:00
9:14 PM,31.5,3.2,30,29.99,10.0,WNW,6.9,-,N/A,,Clear,290,2013-01-07 04:14:00
9:34 PM,32.4,2.3,28,29.98,10.0,WSW,9.2,-,N/A,,Clear,250,2013-01-07 04:34:00
9:54 PM,32.7,4.1,30,29.98,10.0,NW,6.9,-,N/A,,Clear,310,2013-01-07 04:54:00
10:34 PM,34.0,1.9,26,29.99,10.0,North,3.5,-,N/A,,Clear,350,2013-01-07 05:34:00
10:54 PM,37.0,0.7,22,29.98,10.0,WNW,6.9,-,N/A,,Clear,300,2013-01-07 05:54:00
11:14 PM,39.0,0.5,20,29.98,10.0,WNW,9.2,-,N/A,,Clear,300,2013-01-07 06:14:00
11:34 PM,37.6,0.1,21,29.97,10.0,NW,8.1,-,N/A,,Clear,320,2013-01-07 06:34:00
11:54 PM,36.0,0.9,23,29.98,10.0,Calm,Calm,-,N/A,,Clear,0,2013-01-07 06:54:00